Location: Jetmore Oil Field
(38.1181°N, 99.9337°W)
Time: 19:47:16
(UTC+00:00)

ISS - Pass Details

Date: 25 June 2021
Orbit: 419 x 421 km, 51.6° (Epoch: 29 July)

Event Time Altitude Azimuth Distance (km) Brightness Sun altitude
Exits shadow 09:56:12 11° 170° (S) 1,413 -1.4 -13.5°
Maximum altitude 09:58:13 17° 130° (SE) 1,120 -1.5 -13.3°
Drops below altitude 10° 10:00:32 10° 86° (E) 1,496 -0.2 -12.9°
Sets 10:03:06 0° 66° (ENE) 2,363 1.5 -12.6°
